User: anonymous   Login
Location: Fort Wayne
(41.1310°N, 85.1290°W)
Time: 04:50:57
(UTC-05:00)
Language:

SR - Orbit

View from above orbital plane
View from above orbital plane
View from above satellite
View from above satellite

Ground track
Ground track

The orbit data is extracted from the following two-line orbital elements,

1 00046U 60007B   16345.87959133  .00000185  00000-0  59980-4 0  9996
2 00046  66.6910 276.7467 0210166   6.5708 353.8076 14.48973285952976
Epoch (UTC): 10 December 2016 21:06:36
Eccentricity: 0.0210166
inclination: 66.6910°
perigee height: 579 km
apogee height: 878 km
right ascension of ascending node: 276.7467°
argument of perigee: 6.5708°
revolutions per day: 14.48973285
mean anomaly at epoch: 353.8076°
orbit number at epoch: 95297

The dashed part of the orbit path shows where the satellite is in the earth's shadow,  

DLR